Regional Weather Roundup
Issued by NWS Goodland, KS

Home | Current Version | Previous Version | Graphics & Text | Print | Product List | Glossary On
Versions: 1 2 3 4 5 6 7 8 9 10 11 12 13 14 15 16 17 18 19 20 21 22 23 24 25 26 27 28 29 30 31 32 33 34 35 36 37 38 39 40 41 42 43 44 45 46 47 48 49 50
979
ASUS43 KGLD 290208
RWRGLD

GOODLAND FORECAST AREA HOURLY WEATHER ROUNDUP
NATIONAL WEATHER SERVICE GOODLAND KS
800 PM MDT THU APR 28 2016

...OFFICIAL OBSERVATIONS...

CITY           SKY/WX    TMP DP  RH WIND       PRES   REMARKS
GOODLAND KS    CLOUDY    46  37  71 NE10      30.03R
HILL CITY KS   CLOUDY    51  42  71 NE7       30.06R
IMPERIAL NEB   CLOUDY    45  38  76 N3        30.06R
MCCOOK NEB     CLOUDY    46  39  76 NE8       30.06R
AKRON CO       CLOUDY    38  33  82 NE7       30.04R
BURLINGTON CO  CLOUDY    45  36  70 NE12      30.02R
LIMON CO       CLOUDY    37  33  85 E13       30.01R
$$

...UNOFFICIAL OBSERVATIONS...

CITY           SKY/WX    TMP DP  RH WIND       PRES   REMARKS
COLBY KS       CLOUDY    48  43  81 NE8       30.06R
GOVE KS          N/A     49  32  52 MISG        N/A
LENORA KS        N/A     49  32  52 MISG        N/A
NORTON KS      CLOUDY    48  39  71 N7        30.06R
SHARON SPRINGS   N/A     48  38  69 NE12        N/A
TRIBUNE KS     CLOUDY    52  37  58 E9        30.02R
KIT CARSON CO    N/A     46  33  61 MISG        N/A
YUMA CO          N/A     41  36  83 CALM        N/A
$$




USA.gov is the U.S. government's official web portal to all federal, state and local government web resources and services.